TimeEST,TemperatureF,Dew PointF,Humidity,Sea Level PressureIn,VisibilityMPH,Wind Direction,Wind SpeedMPH,Gust SpeedMPH,PrecipitationIn,Events,Conditions,WindDirDegrees,DateUTC
12:53 AM,35.1,19.9,54,29.96,9.0,WNW,10.4,-,0.00,,Overcast,290,2012-11-25 05:53:00
1:53 AM,35.1,19.0,52,29.97,10.0,West,6.9,-,N/A,,Overcast,270,2012-11-25 06:53:00
2:53 AM,35.1,19.0,52,29.98,9.0,WNW,10.4,-,0.00,,Overcast,290,2012-11-25 07:53:00
3:53 AM,35.1,19.0,52,29.98,10.0,West,5.8,-,N/A,,Overcast,270,2012-11-25 08:53:00
4:53 AM,34.0,19.9,56,29.98,10.0,WSW,8.1,-,N/A,,Overcast,240,2012-11-25 09:53:00
5:53 AM,34.0,21.0,59,29.99,10.0,West,9.2,-,N/A,,Overcast,270,2012-11-25 10:53:00
6:53 AM,34.0,21.0,59,30.00,10.0,West,6.9,-,N/A,,Overcast,280,2012-11-25 11:53:00
7:53 AM,34.0,19.9,56,29.99,10.0,Variable,6.9,-,N/A,,Overcast,0,2012-11-25 12:53:00
8:53 AM,34.0,19.9,56,29.99,10.0,West,6.9,-,N/A,,Overcast,270,2012-11-25 13:53:00
9:53 AM,34.0,19.9,56,30.01,10.0,West,6.9,-,N/A,,Overcast,260,2012-11-25 14:53:00
10:53 AM,35.1,19.0,52,29.99,10.0,WSW,6.9,-,N/A,,Scattered Clouds,240,2012-11-25 15:53:00
11:53 AM,36.0,19.0,50,29.96,10.0,WSW,8.1,18.4,N/A,,Partly Cloudy,250,2012-11-25 16:53:00
12:53 PM,37.0,19.9,50,29.93,10.0,SW,9.2,19.6,N/A,,Scattered Clouds,220,2012-11-25 17:53:00
1:53 PM,36.0,21.0,55,29.92,10.0,SW,9.2,-,N/A,,Overcast,230,2012-11-25 18:53:00
2:53 PM,37.0,21.9,54,29.91,10.0,SW,6.9,-,N/A,,Overcast,230,2012-11-25 19:53:00
3:53 PM,36.0,21.9,57,29.91,10.0,WSW,4.6,-,N/A,,Overcast,240,2012-11-25 20:53:00
4:53 PM,35.1,23.0,61,29.92,10.0,Calm,Calm,-,N/A,,Overcast,0,2012-11-25 21:53:00
5:53 PM,32.0,25.0,75,29.94,10.0,SSE,3.5,-,N/A,,Mostly Cloudy,160,2012-11-25 22:53:00
6:53 PM,28.9,23.0,78,29.95,10.0,NNW,3.5,-,N/A,,Clear,340,2012-11-25 23:53:00
7:53 PM,26.1,21.0,81,29.97,10.0,Calm,Calm,-,N/A,,Clear,0,2012-11-26 00:53:00
8:53 PM,24.1,21.0,88,29.97,9.0,Calm,Calm,-,N/A,,Clear,0,2012-11-26 01:53:00
9:53 PM,26.1,23.0,88,29.98,9.0,Calm,Calm,-,N/A,,Overcast,0,2012-11-26 02:53:00
10:53 PM,28.0,24.1,85,29.98,9.0,Calm,Calm,-,N/A,,Overcast,0,2012-11-26 03:53:00
11:53 PM,30.0,25.0,82,29.99,8.0,Calm,Calm,-,N/A,,Overcast,0,2012-11-26 04:53:00